Location: Newark
(52.4787°S, 179.0532°W)
Time: 21:50:34
(UTC+00:00)

Transit 2A Rocket - Pass Details

Date: 26 November 2019
Orbit: 594 x 909 km, 66.7° (Epoch: 09 December)

Event Time Altitude Azimuth Distance (km) Brightness Sun altitude
Rises 21:51:55 0° 286° (WNW) 3,431 8.2 51.9°
Reaches altitude 10° 21:54:34 10° 277° (W) 2,537 7.6 52.2°
Maximum altitude 22:00:00 36° 211° (SSW) 1,420 6.4 52.7°
Drops below altitude 10° 22:05:38 10° 145° (SE) 2,629 7.8 53.3°
Sets 22:08:26 0° 136° (SE) 3,571 8.4 53.6°
